Probability
4 2 0 0 0 0 0 0 1 3 3 2 2 4 4 3 1 1 1 6 12 13 11 11 14 14 12 9 8 8 7 4 4 3 3 3 3 3 3 3 3 3 3 2 2 2 2 2 1
3 1 0 0 0 0 0 1 2 3 4 4 4 5 6 6 4 2 3 8 14 14 11 13 15 15 14 9 7 8 8 6 4 3 3 3 3 3 3 2 2 2 2 2 1 1 1 1 0
1 0 0 0 0 0 0 1 3 5 6 6 6 7 8 8 7 4 5 11 16 14 11 13 16 17 15 10 6 6 7 6 5 4 3 3 3 3 3 3 3 2 2 2 1 0 0 0 0
0 0 0 0 0 0 0 2 5 8 7 7 8 9 8 8 7 6 7 12 15 13 9 12 17 18 16 11 6 5 6 6 6 4 3 3 3 2 2 3 2 1 1 1 1 0 0 0 0
0 0 0 0 0 0 0 2 8 11 10 9 12 13 10 8 9 10 11 12 14 12 9 11 15 17 15 11 7 5 6 6 5 4 3 3 1 1 1 1 1 1 0 0 0 0 0 0 0
0 0 0 0 0 0 0 3 8 13 14 13 15 16 13 11 13 15 13 12 13 13 11 11 13 14 12 9 7 6 6 6 4 3 3 2 1 0 0 0 0 0 0 0 0 0 0 0 0
0 0 0 0 0 0 1 3 9 15 17 16 17 18 16 15 17 19 17 15 14 14 14 14 13 11 9 7 6 6 7 6 4 3 3 3 1 0 0 0 0 0 0 0 0 0 0 0 0
0 0 0 0 0 0 1 5 10 15 17 16 16 17 19 20 23 26 26 22 17 14 15 15 13 10 7 6 6 6 7 7 6 4 3 3 2 0 0 0 0 0 0 0 0 0 0 0 0
0 0 0 0 0 0 2 5 9 14 17 16 16 18 23 29 32 33 31 26 18 14 13 12 11 9 7 6 6 5 6 7 7 5 3 2 1 0 0 0 0 0 0 0 0 0 0 0 0
0 0 0 0 0 0 2 5 9 13 16 17 19 23 29 36 38 34 29 22 16 13 11 8 8 9 8 8 7 5 4 5 5 4 2 1 1 0 0 0 0 0 0 0 0 0 0 0 0
0 0 0 0 0 1 2 5 10 14 14 16 22 29 34 38 37 31 23 15 11 10 8 5 5 6 6 7 7 4 2 1 2 1 0 0 0 0 0 0 0 0 0 0 0 0 0 0 0
0 0 0 0 0 1 1 5 10 12 11 15 24 32 34 34 33 26 18 11 8 7 6 4 3 3 4 5 6 4 2 0 0 0 0 0 0 0 0 0 0 0 0 0 0 0 0 0 0
0 0 0 0 0 1 1 5 9 10 11 19 27 32 31 30 27 22 14 9 8 7 5 4 3 3 4 5 5 4 2 1 0 0 0 0 0 0 0 0 0 0 0 0 0 0 0 0 0
0 0 0 0 0 1 2 4 7 11 16 23 29 30 28 26 23 17 11 7 6 6 5 4 4 4 4 4 4 3 3 2 1 0 0 0 0 0 0 0 0 0 0 0 0 0 0 0 0
0 0 0 0 0 1 2 3 6 14 20 23 26 27 26 22 17 12 8 6 6 5 5 6 7 6 3 1 1 3 3 2 1 0 0 0 0 0 0 0 0 0 0 0 0 0 0 0 0
0 0 0 0 0 1 1 1 5 14 19 20 21 24 24 17 11 8 7 6 5 5 6 8 9 6 4 2 1 2 2 1 0 0 0 0 0 0 0 0 0 0 0 0 0 0 0 0 0
0 0 0 0 0 0 0 0 4 12 17 18 19 21 21 16 9 6 6 6 5 4 6 8 8 6 4 3 3 3 1 0 0 0 1 1 0 0 0 0 0 0 0 0 0 0 0 0 0
0 0 0 0 0 0 0 0 3 11 16 17 17 20 20 15 9 6 6 6 5 4 4 5 5 4 4 3 4 3 1 0 0 1 2 2 1 0 0 0 0 0 0 0 0 0 0 0 0
0 0 0 0 0 0 0 0 3 9 14 16 16 18 18 14 9 7 7 7 6 4 3 3 4 4 4 3 3 2 1 0 0 1 1 1 1 0 0 0 0 0 0 0 0 0 0 0 0
0 0 0 0 0 0 0 0 2 8 13 15 15 16 15 12 9 9 7 7 6 5 4 3 4 4 4 3 1 2 2 1 0 0 0 0 0 0 0 0 0 0 0 0 0 0 0 0 0
0 0 0 0 0 0 1 0 2 6 11 13 13 14 13 9 8 8 7 6 6 6 4 3 3 3 3 1 1 2 2 1 0 0 0 0 0 0 0 0 0 0 0 0 0 0 0 0 0
0 0 0 0 0 0 0 0 1 4 7 10 11 13 12 9 8 7 7 6 6 5 4 3 2 1 1 0 1 2 2 1 0 0 0 0 0 0 0 0 0 0 0 0 0 0 0 0 0
0 0 0 0 0 0 0 0 0 1 3 6 9 11 12 11 9 8 7 5 4 3 3 3 2 1 0 0 0 1 1 1 0 0 0 0 0 0 0 0 0 0 0 0 0 0 0 0 0
0 0 0 0 0 0 0 0 0 1 1 3 7 10 11 11 10 9 6 4 3 3 3 3 2 1 0 0 0 0 0 0 0 0 0 0 0 0 0 1 0 0 0 0 0 0 0 0 0
0 0 0 0 0 0 0 0 0 0 0 2 5 8 10 10 9 8 5 3 3 3 3 3 2 1 0 0 0 0 0 0 0 0 0 0 0 0 0 0 0 0 0 0 0 0 0 0 0
0 0 0 0 0 0 0 0 0 0 0 1 4 8 9 8 8 7 5 3 3 3 2 1 1 0 0 0 0 0 0 0 0 0 0 0 0 0 0 0 0 0 0 0 0 0 0 0 0
0 0 0 0 0 0 0 0 0 1 1 2 3 6 8 7 6 6 4 3 3 3 1 0 0 0 0 0 0 0 0 0 0 0 0 0 0 0 0 0 0 0 0 0 0 0 0 0 0
0 0 0 0 0 0 0 0 0 1 2 2 3 5 6 7 6 4 3 3 3 2 1 0 0 0 0 0 0 0 0 0 0 0 0 0 0 0 0 0 0 0 0 0 0 0 0 0 0
0 0 0 0 0 0 0 0 0 0 1 1 2 3 5 6 4 3 3 3 2 1 0 0 0 0 0 0 0 0 0 0 0 0 0 0 0 0 0 0 0 0 0 0 0 0 0 0 0
0 0 0 0 0 0 0 0 0 0 0 0 1 3 4 4 2 2 3 3 1 0 0 0 0 0 0 0 0 0 0 0 0 0 0 0 0 0 0 0 0 0 0 0 0 0 0 0 0
Wind_Speed
3 2 2 1 4 4 1 2 1 2 1 1 1 3 3 3 3 2 3 10 13 13 10 14 17 17 16 16 15 15 15 15 15 15 14 14 14 13 13 13 12 12 12 13 12 12 12 12 12
3 3 1 3 4 2 3 3 2 3 4 3 2 3 3 3 3 5 5 9 14 12 9 12 17 17 16 16 15 15 15 15 14 14 13 13 13 13 12 12 12 12 12 12 13 12 12 12 12
3 2 3 4 3 3 3 2 2 3 3 2 2 3 2 2 5 5 6 12 12 10 8 12 19 17 16 16 15 14 14 14 14 13 13 13 12 12 12 11 11 12 12 12 12 12 12 12 11
2 3 4 4 1 4 3 2 3 4 2 1 3 4 3 3 3 6 11 14 13 9 8 11 18 17 16 15 15 14 14 14 13 13 12 12 12 11 11 11 11 11 11 11 11 11 11 11 11
3 4 4 2 3 4 3 3 5 3 2 2 3 4 2 4 6 12 13 13 12 9 7 9 17 17 16 15 14 14 14 13 13 12 12 11 11 11 10 10 10 10 10 11 10 10 10 10 9
4 4 4 1 3 3 2 2 5 3 3 3 4 4 2 2 7 11 11 11 10 9 7 8 16 16 15 14 14 13 13 13 12 11 11 11 10 10 9 9 10 10 9 10 10 9 9 9 8
4 4 3 3 2 2 1 2 4 3 3 3 4 5 2 3 6 8 9 9 8 8 7 6 7 10 14 14 13 12 12 11 11 11 10 10 10 9 8 8 8 9 9 9 8 8 8 8 7
4 4 1 2 3 2 1 2 2 3 3 3 3 6 5 7 9 9 7 7 7 6 6 5 5 5 6 7 12 12 12 11 11 11 10 9 9 8 8 7 7 8 8 7 7 7 7 6 6
4 4 2 4 4 3 2 2 2 3 5 3 2 2 5 14 13 11 8 5 5 6 4 5 5 5 5 5 8 9 10 10 9 8 9 7 3 3 4 5 6 6 6 6 6 5 5 5 4
4 3 6 5 4 3 2 3 4 4 3 1 3 5 11 14 14 13 12 10 8 7 5 4 5 5 5 5 4 3 3 4 4 3 4 3 3 2 3 3 5 5 5 5 4 4 4 4 2
5 6 4 3 3 3 3 3 4 6 3 5 7 12 15 14 12 12 11 10 9 7 6 4 5 5 5 3 4 2 2 3 3 3 3 3 2 2 2 1 1 1 2 2 2 3 2 2 1
4 4 4 2 1 2 4 4 3 4 3 3 9 14 16 15 13 12 11 10 8 8 6 5 5 5 4 4 4 3 3 2 2 2 3 3 2 2 1 1 1 2 1 1 2 1 2 2 1
3 2 1 1 0 2 4 3 4 2 2 7 12 13 13 13 11 8 7 7 7 8 7 6 5 5 5 4 4 4 3 3 3 2 2 3 2 2 2 1 1 1 1 1 1 2 2 2 1
2 1 1 1 1 1 4 2 3 2 6 9 11 10 10 11 10 9 8 8 8 8 7 6 6 5 5 4 4 3 3 3 3 2 2 3 2 2 2 2 1 1 1 1 2 2 2 1 1
1 1 3 1 1 2 5 2 2 4 8 9 9 9 8 8 9 9 9 9 8 8 6 6 6 5 6 5 4 3 3 3 3 2 3 3 3 3 3 2 1 1 1 2 2 2 2 1 1
3 3 1 3 1 2 4 3 3 6 9 8 9 9 7 6 7 6 7 7 7 6 6 6 6 6 6 5 4 3 3 3 3 2 2 3 4 4 3 2 2 1 2 2 2 2 2 1 1
4 1 2 4 1 2 3 4 4 7 9 9 9 9 8 7 5 5 6 7 6 6 6 6 6 6 6 5 4 4 3 3 3 3 3 3 4 4 3 3 2 2 2 2 2 2 1 1 1
2 2 3 4 2 1 2 3 5 8 9 9 9 9 9 9 7 6 5 6 6 5 5 5 5 6 6 4 4 3 4 3 3 3 3 4 3 4 4 3 3 3 2 2 2 2 2 1 1
3 3 5 5 2 2 4 4 6 8 8 9 9 9 9 8 6 6 5 5 6 5 5 5 6 6 6 4 4 4 3 3 3 2 3 4 4 4 4 3 3 3 2 2 3 2 3 2 1
3 3 5 4 0 2 1 4 4 7 9 9 10 11 10 7 6 7 6 5 6 7 6 6 7 7 6 4 3 3 4 3 2 2 3 3 4 4 4 4 3 3 3 3 2 2 2 2 2
4 5 5 4 1 2 1 4 3 3 4 6 7 8 9 11 11 9 8 7 7 7 7 7 7 7 6 5 4 4 4 3 2 2 2 2 3 4 4 4 3 3 3 2 2 2 3 2 2
5 6 5 3 2 2 1 3 5 3 4 8 9 9 10 10 9 9 9 9 8 7 6 6 6 7 6 7 7 7 5 4 3 2 2 3 3 4 4 4 4 3 2 3 2 2 2 3 2
6 2 2 2 3 0 0 2 7 2 6 11 12 12 11 11 11 11 10 9 8 7 7 6 7 6 6 6 7 7 5 4 3 3 4 3 3 3 4 4 4 4 3 3 3 3 3 2 2
4 5 6 5 4 1 3 4 7 6 9 8 11 12 12 12 11 10 8 7 7 7 7 7 7 6 6 7 7 7 8 7 6 5 4 3 2 2 3 4 4 3 3 3 3 3 4 3 3
4 6 4 4 3 5 2 3 10 7 7 8 11 13 13 12 12 11 11 10 9 9 8 7 7 6 6 7 7 7 8 8 8 6 5 4 2 2 2 3 3 3 3 3 3 3 3 3 3
4 8 8 5 5 5 2 6 9 4 4 5 8 10 13 13 12 12 12 11 10 10 9 9 8 6 6 7 6 6 7 5 5 5 5 5 3 3 3 3 3 3 3 4 3 3 2 3 3
5 4 5 7 2 1 5 6 8 2 1 4 7 10 13 14 13 12 12 11 11 10 10 10 9 7 7 7 7 6 6 6 6 5 5 4 3 3 4 4 4 3 4 4 4 3 3 3 3
4 7 5 6 5 3 5 5 6 5 4 5 8 11 13 13 13 12 12 12 11 10 8 8 8 8 7 7 7 6 6 6 6 6 6 5 4 4 5 4 4 4 4 4 3 3 2 3 2
3 3 5 4 4 5 3 8 7 8 7 8 10 11 13 14 14 13 12 11 10 9 9 8 8 7 7 7 6 7 6 6 6 6 6 5 4 5 5 5 5 4 4 3 3 3 3 3 2
3 5 7 6 4 4 3 9 5 5 5 7 8 9 11 12 12 12 11 10 10 10 10 9 9 9 8 8 7 7 7 6 6 6 6 6 5 5 5 5 5 4 4 4 4 3 3 3 3
Wind_Direction
199 159 143 107 60 51 293 251 202 156 137 120 121 115 129 132 167 187 121 138 136 143 151 151 148 145 140 135 133 130 129 128 127 126 125 123 122 120 119 117 115 114 113 112 111 110 110 110 110
143 152 109 69 81 52 280 250 202 175 156 133 92 87 87 79 75 107 128 141 139 144 147 150 149 146 143 140 138 135 132 130 129 128 127 126 125 123 119 117 115 114 114 113 113 113 112 111 110
153 141 89 75 99 185 245 238 179 127 138 133 101 73 86 115 126 137 145 140 135 140 144 155 150 149 145 144 143 140 136 134 133 131 129 127 126 124 122 119 116 115 115 113 112 112 111 111 111
116 60 57 71 201 235 227 205 140 138 138 101 119 99 67 47 133 139 139 141 137 139 146 157 151 150 148 147 147 144 141 139 137 135 133 131 129 127 124 123 120 116 115 114 112 112 112 112 112
68 79 64 32 266 261 248 199 160 169 164 121 115 110 61 4 106 129 137 140 140 140 146 155 153 152 151 150 149 148 146 144 142 141 138 135 133 130 127 125 121 118 117 116 114 111 110 110 109
66 72 85 252 263 267 271 197 148 159 139 120 112 109 66 66 121 135 136 138 142 143 144 152 156 154 153 153 152 150 149 149 148 145 142 140 136 133 131 129 125 122 119 117 116 113 111 109 108
111 107 159 212 251 267 245 129 142 152 141 141 127 116 109 117 127 127 127 130 136 140 138 142 150 154 157 157 157 155 153 152 152 150 146 143 140 138 137 135 132 128 125 123 121 118 114 110 108
132 109 166 233 219 238 164 103 100 115 121 104 119 144 167 157 136 123 119 124 132 131 130 128 132 135 145 155 161 160 159 157 156 154 152 152 150 147 144 137 140 136 133 130 126 121 117 112 110
106 85 213 222 202 204 152 116 92 86 102 103 114 144 152 141 139 136 134 129 140 140 127 127 128 129 131 144 164 161 161 161 155 155 159 147 119 121 135 149 152 147 142 138 131 124 117 107 100
112 159 224 219 196 169 168 153 153 125 115 123 96 102 131 143 149 153 156 157 158 156 147 135 137 135 140 155 139 129 130 131 118 113 121 110 110 120 136 165 164 157 153 147 139 126 102 88 73
164 197 226 241 214 156 163 154 149 143 185 204 167 149 148 153 158 163 164 163 162 159 156 151 148 143 144 134 127 113 106 107 107 114 117 113 105 93 90 80 109 102 116 88 85 79 75 81 88
178 234 215 224 208 154 161 145 133 165 207 164 147 150 154 161 168 170 169 165 157 156 159 157 154 146 144 133 129 124 121 120 120 115 119 122 122 115 104 88 80 78 81 96 82 81 78 78 87
203 250 246 201 346 131 119 131 141 155 107 112 130 144 158 167 168 165 163 159 155 161 164 162 154 151 145 135 138 135 135 137 133 124 131 142 146 145 131 119 101 96 99 112 109 106 100 85 79
206 197 301 310 77 138 129 127 122 157 126 124 138 151 160 165 164 160 163 166 168 167 164 156 151 149 139 135 134 136 138 134 129 139 152 150 147 143 137 131 122 105 108 124 119 119 109 90 84
49 44 353 325 105 132 114 77 212 159 137 138 147 150 151 156 162 171 173 171 171 167 160 154 152 144 142 139 143 138 138 134 131 137 145 144 139 136 132 129 120 108 109 110 99 91 87 92 78
45 53 339 288 136 143 135 220 214 155 147 152 158 157 156 157 163 171 171 168 166 160 156 156 159 150 148 144 141 136 137 132 126 123 122 125 126 126 122 120 119 115 104 102 107 93 84 70 67
36 37 275 293 198 143 162 219 200 168 163 165 167 166 162 156 160 167 171 170 168 163 156 153 146 148 143 133 127 122 119 116 116 118 117 115 115 118 115 113 115 114 108 107 123 90 99 101 77
230 244 262 264 249 165 203 222 193 183 175 175 172 170 168 171 175 165 162 162 158 157 153 150 141 139 131 120 115 107 102 100 99 106 115 116 115 115 110 107 106 108 107 99 102 102 81 86 90
194 222 262 264 242 186 212 219 206 187 184 182 179 178 178 177 160 151 154 154 150 155 154 159 151 146 140 135 134 130 128 117 104 111 113 116 119 117 112 110 100 105 112 117 120 113 92 62 60
206 246 266 287 183 154 222 256 223 193 197 188 185 185 179 165 159 161 157 161 167 167 165 160 157 155 153 145 136 128 122 112 103 99 100 113 120 120 120 117 111 106 104 96 98 110 105 63 49
228 209 227 235 12 57 85 307 244 209 188 187 192 188 179 177 176 175 171 172 172 172 172 166 162 155 153 142 124 110 92 85 88 93 95 100 116 115 116 122 114 105 102 106 95 108 122 120 61
247 230 206 196 139 283 121 282 273 214 198 202 199 191 186 181 174 176 177 176 178 176 163 152 154 150 152 149 149 149 145 143 151 139 121 104 107 122 126 123 116 108 100 102 95 90 108 126 121
213 206 152 151 144 2 300 207 280 188 220 219 205 196 188 181 176 180 184 180 174 163 154 151 147 148 152 154 153 147 138 128 119 114 115 106 91 104 122 121 117 112 104 101 93 88 89 101 125
151 74 55 49 72 281 232 178 270 222 216 211 201 193 184 178 178 178 172 160 156 153 152 149 147 149 152 154 152 150 146 141 137 136 135 123 104 91 106 114 115 118 115 112 107 101 99 96 101
110 97 34 356 5 252 232 201 248 243 219 202 193 189 180 175 174 172 167 166 163 162 161 155 153 152 154 154 156 157 155 154 155 155 154 148 139 135 138 126 127 126 123 118 112 104 100 102 102
174 147 163 198 223 269 269 236 253 254 230 197 181 175 171 174 175 177 176 171 170 169 166 161 159 155 156 155 156 155 153 153 154 156 154 159 159 156 148 141 137 131 126 120 110 103 102 97 96
143 168 164 138 158 256 271 275 296 257 195 166 164 165 174 177 177 178 175 173 172 172 172 168 164 159 161 159 152 151 153 154 154 151 146 148 149 149 146 142 133 128 124 124 119 110 107 106 96
134 144 107 124 152 241 283 268 251 249 220 181 177 178 179 176 176 176 176 178 176 173 168 164 163 164 160 156 157 157 156 156 152 149 154 156 155 147 147 145 142 135 129 128 122 118 120 117 108
118 114 114 121 154 162 248 269 231 219 206 194 192 187 181 179 179 179 178 177 172 163 163 164 163 157 158 161 157 149 153 153 151 156 163 161 158 158 160 158 151 145 142 141 135 136 134 127 116
167 169 148 153 200 174 182 266 276 222 199 187 189 186 183 181 179 177 173 167 167 168 169 171 171 169 169 163 157 156 154 153 156 161 165 161 162 165 162 156 153 157 155 154 155 159 154 152 153